Content
SEND FEEDBACK

Daily
Averages
Monthly
Summary
Switzerland

GENEVA, SWITZERLAND


Home > Europe > Switzerland
Elevation: 1364 feet     Latitude: 46 15N     Longitude: 006 08E

WEATHER
 
SELECT A DAY
Number of Records: 313,363;   Date Range: 7/1/96 - 10/23/14
 
SHARE

PRINT THIS DATA

[ ← Previous Day ]
WEATHER ALMANAC - JULY 2, 2013
[ Next Day → ]
[ °C ]   °F
Weather ElementAverageHighLow
Temperature71.3 °F82.4 °F (2:20 pm)59 °F (6:00 am)
Dewpoint55.1 °F59 °F (12:50 pm)48.2 °F (11:20 pm)
Humidity57 %88 % (1:50 am)25 % (3:00 pm)
Barometer30.01 in30.06 in (12:20 am)29.91 in (4:00 pm)
Wind Speed6.5 mph16.1 mph (4:00 pm)
Weather ElementAverage
Visibility8.5 mi
Wind DirectionSSE (163 °)

Weather ElementTotal
Precipitation---
Cooling Degree Days5.7 (Base 65)
Growing Degree Days20.7 (Base 50)
Averaged from 66 records on July 2, 2013
WEATHER CONDITIONS BREAKOUT
WIND DIRECTION BREAKOUT
WEATHER BY HOUR - JULY 2, 2013
[ °C ]   °F
Local TimeTemperatureDewpointHumidityBarometerVisibilityWind DirectionWind SpeedGust SpeedPrecipitationEventsConditions
12:20 AM64.4 °F57.2 °F77 %30.06 in6.2 miVariable1.2 mphScattered Clouds
12:50 AM62.6 °F57.2 °F82 %30.06 in6.2 miCalmScattered Clouds
1:00 AM62.0 °F56.0 °F75 %30.05 inSSW (200°)1.2 mph
1:20 AM62.6 °F57.2 °F82 %30.06 in6.2 miWest (280°)2.3 mphScattered Clouds
1:50 AM60.8 °F57.2 °F88 %30.06 in6.2 miCalmScattered Clouds
2:00 AM61.0 °F56.0 °F79 %30.06 in28.0 miWest (280°)2.3 mphPartly Cloudy
2:20 AM60.8 °F57.2 °F88 %30.06 in6.2 miCalmScattered Clouds
2:50 AM60.8 °F57.2 °F88 %30.06 in6.2 miVariable1.2 mphScattered Clouds
3:00 AM60.0 °F56.0 °F81 %30.05 inSouth (190°)1.2 mph
3:50 AM60.8 °F57.2 °F88 %30.06 in6.2 miVariable1.2 mphScattered Clouds
4:00 AM60.0 °F56.0 °F83 %30.04 inNW (320°)3.5 mph
4:20 AM60.8 °F57.2 °F88 %30.06 in6.2 miVariable2.3 mphScattered Clouds
4:50 AM60.8 °F55.4 °F82 %30.06 in6.2 miVariable1.2 mphScattered Clouds
5:20 AM60.8 °F55.4 °F82 %30.06 in6.2 miVariable2.3 mphMostly Cloudy
5:50 AM60.8 °F55.4 °F82 %30.06 in6.2 miCalmScattered Clouds
6:00 AM59.0 °F55.0 °F81 %30.05 inNorth3.5 mph
6:20 AM59.0 °F55.4 °F88 %30.06 in6.2 miVariable1.2 mphScattered Clouds
6:50 AM60.8 °F55.4 °F82 %30.06 in6.2 miVariable1.2 mphScattered Clouds
7:00 AM61.0 °F54.0 °F73 %30.06 inNW (320°)2.3 mph
7:20 AM62.6 °F55.4 °F77 %30.06 in6.2 miCalmScattered Clouds
7:50 AM66.2 °F57.2 °F73 %30.06 in6.2 miCalmScattered Clouds
8:00 AM64.0 °F55.0 °F64 %30.05 in37.0 miNNE (30°)2.3 mphScattered Clouds
8:20 AM68.0 °F55.4 °F64 %30.06 in6.2 miCalmPartly Cloudy
8:50 AM69.8 °F55.4 °F60 %30.06 in6.2 miVariable1.2 mphPartly Cloudy
9:00 AM68.0 °F54.0 °F51 %30.04 inWest (260°)1.2 mph
9:20 AM69.8 °F55.4 °F60 %30.06 in6.2 miSW (220°)3.5 mphScattered Clouds
9:50 AM71.6 °F57.2 °F60 %30.06 in6.2 miVariable3.5 mphMostly Cloudy
10:00 AM71.0 °F56.0 °F50 %30.02 inSW (230°)5.8 mph
10:20 AM71.6 °F57.2 °F60 %30.06 in6.2 miCalmMostly Cloudy
10:50 AM75.2 °F57.2 °F53 %30.04 in6.2 miSW (230°)4.6 mphMostly Cloudy
11:20 AM75.2 °F57.2 °F53 %30.04 in6.2 miSW (220°)9.2 mphScattered Clouds
11:50 AM77.0 °F57.2 °F50 %30.04 in6.2 miSW (230°)6.9 mphScattered Clouds
12:00 PM78.0 °F57.0 °F38 %29.97 inSW (230°)9.2 mph
12:20 PM77.0 °F55.4 °F47 %30.04 in6.2 miSW (230°)9.2 mphScattered Clouds
12:50 PM78.8 °F59.0 °F51 %30.04 in6.2 miSW (220°)8.1 mphScattered Clouds
1:00 PM80.0 °F56.0 °F34 %29.96 inSW (230°)6.9 mph
1:20 PM80.6 °F57.2 °F45 %30.01 in6.2 miSW (220°)9.2 mphScattered Clouds
1:50 PM80.6 °F55.4 °F42 %30.01 in6.2 miSW (230°)10.4 mphPartly Cloudy
2:00 PM81.0 °F54.0 °F29 %29.94 in37.0 miWSW (240°)12.7 mphScattered Clouds
2:20 PM82.4 °F53.6 °F37 %30.01 in6.2 miSW (220°)13.8 mphPartly Cloudy
2:50 PM82.4 °F53.6 °F37 %29.98 in6.2 miSW (230°)12.7 mphPartly Cloudy
3:00 PM82.0 °F52.0 °F25 %29.92 inSW (230°)12.7 mph
3:20 PM82.4 °F55.4 °F39 %29.98 in6.2 miSW (230°)12.7 mphScattered Clouds
3:50 PM80.6 °F53.6 °F39 %29.98 in6.2 miSW (220°)15.0 mphScattered Clouds
4:00 PM80.0 °F54.0 °F30 %29.91 inSW (220°)16.1 mph
4:20 PM80.6 °F55.4 °F42 %29.98 in6.2 miSW (220°)15.0 mphScattered Clouds
4:50 PM80.6 °F55.4 °F42 %29.98 in6.2 miSW (230°)15.0 mphMostly Cloudy
5:20 PM78.8 °F55.4 °F44 %29.98 in6.2 miSW (230°)13.8 mphMostly Cloudy
5:50 PM78.8 °F53.6 °F42 %29.98 in6.2 miWSW (240°)10.4 mphMostly Cloudy
6:00 PM78.0 °F51.0 °F28 %29.91 inWSW (240°)10.4 mph
6:20 PM78.8 °F51.8 °F39 %29.98 inWSW (250°)4.6 mphClear
6:50 PM78.8 °F51.8 °F39 %29.95 inSW (230°)4.6 mphClear
7:00 PM76.0 °F53.0 °F33 %29.91 inWSW (250°)3.5 mph
7:20 PM77.0 °F53.6 °F44 %29.98 inSW (230°)4.6 mphClear
7:50 PM77.0 °F57.2 °F50 %29.98 in6.2 miSW (220°)8.1 mphMostly Cloudy
8:00 PM77.0 °F57.0 °F39 %29.91 in31.0 miSW (220°)9.2 mphPartly Cloudy
8:20 PM77.0 °F55.4 °F47 %29.98 in6.2 miSSW (200°)12.7 mphMostly Cloudy
8:50 PM75.2 °F53.6 °F47 %29.98 in6.2 miSW (220°)12.7 mphMostly Cloudy
9:00 PM73.0 °F53.0 °F39 %29.93 inSW (230°)10.4 mph
9:20 PM73.4 °F53.6 °F50 %29.98 in6.2 miSW (220°)8.1 mphMostly Cloudy
9:50 PM73.4 °F53.6 °F50 %30.01 in6.2 miSW (230°)8.1 mphMostly Cloudy
10:00 PM72.0 °F54.0 °F42 %29.96 inWSW (240°)16.1 mph
10:20 PM71.6 °F53.6 °F53 %30.01 in6.2 miWSW (250°)13.8 mphMostly Cloudy
10:50 PM69.8 °F51.8 °F53 %30.01 in6.2 miSW (230°)8.1 mphMostly Cloudy
11:20 PM71.6 °F48.2 °F43 %30.01 in6.2 miSW (220°)13.8 mphRainLight Rain Showers
11:50 PM69.8 °F53.6 °F56 %30.01 in6.2 miSSW (200°)10.4 mphRainLight Rain Showers
Hourly data recorded from LSGG, located miles away from Geneva, Switzerland







STORIES FROM OUR PARTNERS